STARLINK-4049, 52840

Orbit data source: Space-Track

STARLINK-4049, 52840 is a payload satellite owned by SpaceX/Seattle (US) in LEO that was launched on Fri, 17 Jun 2022 UTC via an FALCON 9 launch vehicle from the Air Force Eastern Test Range (AFETR). Payload-class satellites include a variety of spacecraft equipped with specific instruments for various scientific and technological missions. These include communications satellites like Starlink; space stations such as the ISS; scientific satellites like the Hubble; Earth observation satellites from companies like Planet Labs, Umbra, and HawkEye 360; GPS; miniature CubeSats for education and research; and military/defense satellites.

Loading next visibility...
Identifier
52840, 2022-062L
Orbit
LEO
Country
Flag of USUS
Related business
Manufacturer
SpaceX/Seattle
Mission
Operational Commercial Communications
Bus & Motor
STARLINK, Unknown motor
Mass
297 kg wet, ~275 kg dry
Launch date (UTC)
2022-06-17 (4 years ago)
Launch vehicle
FALCON 9
Launch site
Air Force Eastern Test Range (AFETR)
Object type
Payload
Rocket body
Debris
Shape & HBR
Box + 1 Pan, 10.1 m
Radar Cross Section
13.562 m², Large (>1 m²)

Expand to show TLE details & history
Last TLE update: 18 hours ago

TLE from 18 hours ago
0 STARLINK-4049
1 52840U 22062L   25349.89388320  .00007843  00000-0  51033-3 0  9992
2 52840  53.2177  50.4109 0001461  84.6295 275.4864 15.08840021193133
Epoch: 2025-12-15T21:27Z
TLE epoch observation values (Epoch: 2025-12-15T21:27:11.508Z)
Latitude
-0.00001°
Longitude
3.82704°
Altitude
540.544 km
Speed
7.593 km/s
True Right ascension
03h 21m 38s
True Declination
0° 00' 00"
Sunlit
Object was in full shadow at epoch
Visualization orbit readout
Latitude
Unknown
Longitude
Unknown
Altitude
Unknown
Speed
Unknown
Apparent Right ascension
Unknown
Apparent Declination
Unknown
Sunlit
N/A
Visualization observer readout
Local Sidereal Time
13:40:25
Azimuth
Unknown
Elevation
Unknown
Doppler factor
Unknown
Orbital elements
Apogee altitude
540.999 km
Perigee altitude
538.977 km
Semi-major axis
6,918.125 km
Eccentricity
0.00015
Inclination
53.2177°
RAAN
50.4109°
Arg. of periapsis
84.6295°
True anomaly
275.46973°
Mean anomaly
275.4864°
Eccentric anomaly
275.47807°
Mean motion
3.7719 °/min
Orbital period
95.44 mins
BSTAR
0.00051033
Loading maneuver chart data...
Computing Atmospheric mass density...
Loading historical data...
Loading historical data...
Loading historical data...
Loading historical data...
Loading historical data...
Loading historical data...
Loading historical data...

Documentation

Showing up to 5 results
|